FW3057 Weather Reports


Display with metric or nautical units.
time (UTC)temp
F
wind
direction
speed
MPH
gust
MPH
rain 1hr
in
rain 24hr
in
rain mn
in
humidity
%
barometer
mb
20260905172310 67 78 7.0 10.0 0.00 0.00 0.00 76 1024.8
20260905171310 67 52 7.0 11.0 0.00 0.00 0.00 74 1024.9
20260905170310 67 122 5.0 11.0 0.00 0.00 0.00 74 1025.0
20260905165310 67 82 5.0 10.0 0.00 0.00 0.00 73 1024.9
20260905164310 68 75 5.0 13.0 0.00 0.00 0.00 73 1024.9
20260905163310 68 108 6.0 9.0 0.00 0.00 0.00 73 1024.9
20260905162310 68 89 7.0 14.0 0.00 0.00 0.00 72 1025.1
20260905161310 68 68 5.0 11.0 0.00 0.00 0.00 72 1025.0
20260905160310 62 37 2.0 5.0 0.00 0.00 0.00 93 1025.7
20260905155310 68 117 6.0 11.0 0.00 0.00 0.00 71 1025.1
20260905154310 68 60 6.0 12.0 0.00 0.00 0.00 71 1025.2
20260905153310 69 51 7.0 9.0 0.00 0.00 0.00 70 1025.3
20260905152310 69 113 7.0 13.0 0.00 0.00 0.00 69 1025.1
20260905151310 69 65 4.0 11.0 0.00 0.00 0.00 69 1025.2
20260905150311 69 108 5.0 9.0 0.00 0.00 0.00 69 1025.2
20260905144310 69 63 8.0 11.0 0.00 0.00 0.00 69 1025.4
20260905143310 69 59 5.0 13.0 0.00 0.00 0.00 70 1025.5
20260905142310 69 100 5.0 12.0 0.00 0.00 0.00 69 1025.5
20260905141309 69 58 7.0 11.0 0.00 0.00 0.00 69 1025.5
20260905140309 69 54 4.0 9.0 0.00 0.00 0.00 69 1025.7
20260905135309 69 27 4.0 9.0 0.00 0.00 0.00 70 1025.9
20260905132310 69 135 3.0 10.0 0.00 0.00 0.00 69 1026.0
20260905124309 69 37 5.0 9.0 0.00 0.00 0.00 70 1026.2
20260905123309 68 68 4.0 11.0 0.00 0.00 0.00 70 1026.2
20260905122309 68 96 5.0 11.0 0.00 0.00 0.00 71 1026.2
20260905121309 69 103 7.0 10.0 0.00 0.00 0.00 70 1026.2
20260905120309 68 35 5.0 9.0 0.00 0.00 0.00 71 1026.3
20260905115309 68 112 4.0 9.0 0.00 0.00 0.00 71 1026.4
20260905114309 68 76 5.0 8.0 0.00 0.00 0.00 72 1026.3
20260905113309 68 51 5.0 9.0 0.00 0.00 0.00 73 1026.2
20260905112309 68 39 6.0 9.0 0.00 0.00 0.00 71 1026.3
20260905111309 68 81 5.0 8.0 0.00 0.00 0.00 72 1026.3
20260905110309 68 348 3.0 6.0 0.00 0.00 0.00 73 1026.3
20260905105309 68 123 6.0 8.0 0.00 0.00 0.00 73 1026.4
20260905104309 68 71 5.0 7.0 0.00 0.00 0.00 73 1026.4
20260905103309 68 234 3.0 8.0 0.00 0.00 0.00 74 1026.4
20260905102309 68 108 3.0 10.0 0.00 0.00 0.00 76 1026.4
20260905101309 67 84 3.0 7.0 0.00 0.00 0.00 76 1026.4
20260905100309 67 81 4.0 10.0 0.00 0.00 0.00 78 1026.4
20260905095309 67 39 5.0 7.0 0.00 0.00 0.00 78 1026.5
20260905093309 67 105 3.0 8.0 0.00 0.00 0.00 78 1026.4
20260905091309 67 35 3.0 7.0 0.00 0.00 0.00 79 1026.1
20260905090309 66 262 2.0 7.0 0.00 0.00 0.00 80 1026.0
20260905085309 66 76 2.0 7.0 0.00 0.00 0.00 81 1026.1
20260905082309 64 269 2.0 6.0 0.00 0.00 0.00 90 1026.0
20260905081309 63 89 3.0 5.0 0.00 0.00 0.00 92 1025.9
20260905080309 62 288 3.0 5.0 0.00 0.00 0.00 94 1025.7
20260905075309 62 328 1.0 5.0 0.00 0.00 0.00 95 1025.6
20260905073309 60 279 3.0 4.0 0.00 0.00 0.00 96 1025.4
20260905072310 60 276 2.0 5.0 0.00 0.00 0.00 96 1025.4
20260905071309 59 259 4.0 6.0 0.00 0.00 0.00 96 1025.4
20260905070309 58 279 3.0 5.0 0.00 0.00 0.00 96 1025.3
20260905065309 58 269 2.0 4.0 0.00 0.00 0.00 96 1025.2
20260905064309 58 220 2.0 5.0 0.00 0.00 0.00 96 1025.2
20260905063309 58 283 3.0 5.0 0.00 0.00 0.00 96 1025.0
20260905062309 58 228 2.0 4.0 0.00 0.00 0.00 96 1024.9
20260905061309 57 278 3.0 5.0 0.00 0.00 0.00 96 1024.8
20260905060309 57 272 3.0 5.0 0.00 0.00 0.00 96 1024.8
20260905055308 57 252 3.0 5.0 0.00 0.00 0.00 96 1024.6
20260905054309 57 278 3.0 5.0 0.00 0.00 0.00 96 1024.5
20260905053309 57 269 3.0 6.0 0.00 0.00 0.00 96 1024.4
20260905052308 57 232 3.0 5.0 0.00 0.00 0.00 95 1024.4
20260905051308 57 278 4.0 5.0 0.00 0.00 0.00 95 1024.3
20260905050308 57 223 2.0 5.0 0.00 0.00 0.00 95 1024.2
20260905044309 57 252 3.0 5.0 0.00 0.00 0.00 95 1024.3
20260905043309 57 276 3.0 5.0 0.00 0.00 0.00 95 1024.1
20260905042309 57 253 3.0 6.0 0.00 0.00 0.00 95 1024.2
20260905041309 57 295 3.0 6.0 0.00 0.00 0.00 95 1024.0
20260905040309 57 279 3.0 5.0 0.00 0.00 0.00 95 1024.0
20260905035309 58 279 3.0 6.0 0.00 0.00 0.00 95 1024.0
20260905034309 58 283 3.0 5.0 0.00 0.00 0.00 95 1023.9
20260905033309 58 269 3.0 5.0 0.00 0.00 0.00 95 1024.0
20260905032309 58 262 3.0 5.0 0.00 0.00 0.00 95 1023.7
20260905031309 58 197 2.0 5.0 0.00 0.00 0.00 95 1023.7
20260905030311 58 272 3.0 6.0 0.00 0.00 0.00 95 1023.6
20260905025311 58 295 3.0 5.0 0.00 0.00 0.00 94 1023.6
20260905024311 58 278 3.0 5.0 0.00 0.00 0.00 94 1023.6
20260905023311 58 283 2.0 5.0 0.00 0.00 0.00 94 1023.5
20260905021311 58 274 3.0 4.0 0.00 0.00 0.00 94 1023.4
20260905020311 59 262 4.0 6.0 0.00 0.00 0.00 94 1023.3
20260905015311 59 302 3.0 6.0 0.00 0.00 0.00 94 1023.4
20260905014311 59 290 3.0 5.0 0.00 0.00 0.00 94 1023.3
20260905012311 59 314 3.0 4.0 0.00 0.00 0.00 94 1023.3
20260905011311 59 314 2.0 5.0 0.00 0.00 0.00 93 1023.3
20260905010312 60 291 2.0 5.0 0.00 0.00 0.00 93 1023.3
20260905004310 60 279 3.0 6.0 0.00 0.00 0.00 93 1023.3
20260905003310 60 316 3.0 5.0 0.00 0.00 0.00 93 1023.3
20260905002310 60 284 2.0 5.0 0.00 0.00 0.00 93 1023.2
20260905001310 60 264 3.0 5.0 0.00 0.00 0.00 93 1023.2
20260905000311 60 326 3.0 5.0 0.00 0.00 0.00 93 1023.0
20260904235310 60 297 3.0 7.0 0.00 0.00 0.00 93 1022.8
20260904234310 60 271 3.0 6.0 0.00 0.00 0.00 93 1022.7
20260904233310 60 269 3.0 5.0 0.00 0.00 0.00 93 1022.7
20260904230311 61 276 2.0 4.0 0.00 0.00 0.00 92 1022.8
20260904222311 61 304 2.0 6.0 0.00 0.00 0.00 91 1022.9
20260904220310 62 276 3.0 6.0 0.00 0.00 0.00 91 1022.8
20260904215310 62 291 3.0 6.0 0.00 0.02 0.02 90 1022.7
20260904214310 62 285 4.0 6.0 0.00 0.02 0.02 90 1022.7
20260904213310 62 281 2.0 5.0 0.00 0.02 0.02 89 1022.6
20260904211310 62 300 2.0 4.0 0.00 0.02 0.02 89 1023.0
20260904210310 62 288 2.0 5.0 0.00 0.02 0.02 89 1022.7
20260904205310 63 338 2.0 4.0 0.00 0.02 0.02 88 1022.8
20260904204310 63 302 2.0 5.0 0.00 0.02 0.02 88 1022.9
20260904203310 63 284 3.0 4.0 0.00 0.02 0.02 88 1022.5
20260904202310 63 300 1.0 3.0 0.00 0.02 0.02 87 1022.5
20260904201310 63 300 2.0 5.0 0.00 0.02 0.02 87 1022.3
20260904195310 64 283 2.0 5.0 0.00 0.02 0.02 86 1022.1
20260904194310 64 293 3.0 7.0 0.00 0.02 0.02 86 1022.2
20260904193310 64 290 2.0 4.0 0.00 0.02 0.02 85 1021.8
20260904192310 65 306 2.0 3.0 0.00 0.02 0.02 85 1021.5
20260904190310 65 303 3.0 6.0 0.00 0.02 0.02 85 1021.1
20260904184310 66 295 1.0 4.0 0.00 0.02 0.02 85 1021.1
20260904183310 66 335 3.0 4.0 0.00 0.02 0.02 85 1021.0
20260904181310 67 304 3.0 5.0 0.00 0.02 0.02 84 1020.8
20260904180311 67 20 3.0 6.0 0.00 0.02 0.02 84 1021.1
20260904174310 67 314 3.0 10.0 0.00 0.02 0.02 84 1020.6
20260904173310 67 302 5.0 12.0 0.00 0.02 0.02 85 1020.7